Location: Praha
(50.0830°N, 14.4670°E)
Time: 05:34:21
(UTC+02:00)

ISS - Pass Details

Date: 30 March 2020
Orbit: 417 x 423 km, 51.6° (Epoch: 29 March)

Event Time Altitude Azimuth Distance (km) Brightness Sun altitude
Rises 22:32:46 0° 285° (WNW) 2,362 1.0 -26.4°
Reaches altitude 10° 22:35:08 10° 271° (W) 1,496 -0.4 -26.7°
Enters shadow 22:35:41 13° 264° (W) 1,318 -0.8 -26.8°
